www.pogodaiklimat.ru

Погода и климат >> Архив погоды >> Монголия >> Цэцэн-Уул


ПОГОДА в Цэцэн-Ууле

  • Прогноз погоды в Цэцэн-Ууле
  • Монитор погоды в Цэцэн-Ууле

АРХИВ ПОГОДЫ в Цэцэн-Ууле

Время (UTC), дата Ветер
(напр.,м/с)
 
Видим.   Явления Облачность Т
(С)
Тd
(С)
f
(%)
Тe
(С)
Тes
(С)
Комфортность P
(гПа)
Po
(гПа)
Тmin
(С)
Tmax
(С)
R
(мм)
R24
(мм)
S
(см)
12 11.09 З 4 50 км {ливн. осадки, снег} 9/9 600 м
[Cb cap]
+6.9 +1.2 67 +4 +4 1019.7 806.1 +7.3 5
15 11.09 штиль 0 50 км 4/0
[Ac trans]
+3.8 +2.4 91 +3 +3 1024.2 807.5
18 11.09 штиль 0 50 км ясно +1.2 +0.2 93 -0 -0 1026.5 807.5
21 11.09 штиль 0 50 км 3/0
[Ac lent]
+0.7 +0.2 96 -1 -1 1026.4 807.1
00 12.09 штиль 0 50 км ясно +0.2 -0.5 95 -1 -1 1026.9 807.0 -0.2
03 12.09 Ю 2 50 км 8/8 1000 м
[Cu med, cong]
+6.8 -0.3 61 +5 +6 1021.6 807.5
06 12.09 З 4 50 км 9/9 600 м
[Cb calv]
+8.5 -4.4 40 +6 +7 1019.0 806.6
12 12.09 С 3 50 км {ливн. осадки, снег} 10/10 600 м
[Cb cap]
+1.5 +0.3 92 -3 -3 1027.2 808.3 +8.9 2
15 12.09 С 1 н/о 9/9 600 м
[Cb cap]
+0.8 -0.7 90 -1 -1 1029.2 809.4
18 12.09 штиль 0 н/о 8/5 600 м
[Cb calv Ac lent]
-0.4 -1.5 92 -2 -2 1030.2 809.3
21 12.09 штиль 0 50 км 1/0
[Ac lent]
-2.3 -2.9 96 -4 -4 1031.8 809.2
00 13.09 штиль 0 50 км ясно -2.0 -2.8 94 -3 -3 1031.3 809.0 -2.8
03 13.09 ЮЗ 4 50 км 5/1 1000 м
[Cu hum Ac lent Ci]
+3.6 -3.9 58 -0 +3 1026.0 808.8
06 13.09 Ю 7 50 км 8/3 1000 м
[Cu med, cong Ci]
+6.5 -4.2 46 +2 +4 1022.3 807.9
09 13.09 Ю 5 50 км 4/0
[Ac lent Ci]
+8.6 -8.1 30 +6 +8 1019.1 806.8
12 13.09 З 2 50 км 8/0
[Ac lent Ci]
+7.3 -2.6 49 +6 +6 1019.2 806.0 +8.9
15 13.09 штиль 0 н/о 9/0
[Ac As]
+3.4 -2.6 65 +3 +3 1017.7 805.2
18 13.09 штиль 0 н/о 9/0
[Ac trans]
+1.7 -1.1 82 +1 +1 1023.1 805.2
21 13.09 штиль 0 н/о 9/9 1000 м
[Sc]
+0.1 -2.2 84 -1 -1 1024.0 804.8
00 14.09 штиль 0 50 км 8/8 1000 м
[Sc]
-1.0 -2.2 92 -2 -2 1026.0 805.6 -1.8
03 14.09 Ю 1 50 км 4/0
[Ac trans]
+6.8 -2.7 51 +6 +12 1021.4 807.4
06 14.09 СЗ 2 50 км 8/6 600 м
[Cb calv Ci]
+9.0 -4.0 40 +8 +12 1019.7 807.5
09 14.09 С 4 50 км 8/8 600 м
[Cb cap]
+9.4 -2.7 43 +7 +8 1019.4 807.5
12 14.09 С 3 50 км 3/3 1000 м
[Cu hum]
+6.6 -4.4 45 +4 +4 1023.2 808.7 +10.2
15 14.09 штиль 0 50 км ясно +1.0 -2.0 80 0 0 1029.5 809.8
18 14.09 штиль 0 50 км ясно -0.6 -1.7 92 -2 -2 1030.8 809.6
21 14.09 штиль 0 50 км ясно -3.0 -3.7 95 -4 -4 1032.7 809.4
00 15.09 штиль 0 50 км 8/0
[Ac und]
-2.4 -4.1 88 -4 -3 1032.8 809.9 -4.0
03 15.09 штиль 0 50 км 4/0
[Ac lent Ci fib]
+6.7 -0.4 60 +6 +12 1024.7 809.9
06 15.09 ЮЗ 5 50 км 8/8 600 м
[Cb calv]
+11.5 -3.8 34 +9 +11 1019.2 808.8
09 15.09 З 3 50 км 6/6 600 м
[Cb cap]
+11.0 -7.7 26 +10 +11 1018.1 807.6
12 15.09 СЗ 1 50 км 4/0
[Ac trans]
+9.4 -4.9 36 +10 +10 1019.4 807.5 +12.0
15 15.09 штиль 0 50 км 1/0
[Ci fib]
+1.8 -2.9 71 +1 +1 1027.6 808.8
18 15.09 штиль 0 50 км ясно -1.4 -2.7 91 -3 -3 1030.6 808.9
21 15.09 штиль 0 50 км ясно -2.8 -3.7 94 -4 -4 1031.9 808.9
00 16.09 штиль 0 50 км 3/0
[Ac lent Ci fib]
-3.6 -4.1 96 -5 -5 1033.8 809.8 -4.8
03 16.09 штиль 0 50 км 3/1 1000 м
[Cu hum Ci fib]
+7.6 -1.9 51 +7 +14 1025.3 811.0
06 16.09 Ю 2 50 км 8/8 600 м
[Cb calv]
+9.5 -0.7 49 +8 +10 1022.5 810.1
09 16.09 З 3 50 км 9/6 600 м
[Cb calv Ci]
+10.5 -0.4 47 +9 +10 1021.3 809.8
12 16.09 С 3 50 км 3/0
[Ac lent]
+9.4 -0.5 50 +8 +8 1023.9 811.1 +11.1
15 16.09 штиль 0 50 км ясно +1.3 -1.6 81 0 0 1033.0 812.7
18 16.09 штиль 0 50 км ясно -1.0 -2.5 90 -2 -2 1035.1 812.7
21 16.09 штиль 0 50 км ясно -1.8 -2.6 94 -3 -3 1036.1 812.9
00 17.09 штиль 0 50 км ясно -5.2 -5.9 95 -6 -6 1040.2 813.6 -5.6
03 17.09 штиль 0 50 км 3/0
[Ci]
+9.4 -0.9 49 +9 +17 1027.3 813.8
06 17.09 ЮЗ 2 50 км 8/0
[Ac lent Cc]
+14.8 -3.8 27 +15 +20 1021.3 812.6
09 17.09 Ю 3 50 км 8/0
[Ac As]
+16.1 -5.1 23 +16 +17 1018.9 811.5
12 17.09 З 2 50 км 9/0
[Ac As]
+11.6 -0.3 44 +11 +11 1021.8 810.9 +16.2
15 17.09 штиль 0 н/о 9/0
[Cs]
+8.0 -1.3 52 +8 +8 1026.7 812.4
18 17.09 Ю 3 н/о 10/0
[Ac As]
+10.8 -0.0 47 +9 +9 1023.9 812.0
21 17.09 штиль 0 н/о 10/10 1000 м
[Sc]
+9.6 +0.9 55 +9 +9 1024.9 812.0
00 18.09 штиль 0 10 км осадки на расстоянии 10/10 1000 м
[Sc]
+6.3 +2.8 78 +6 +6 1029.2 813.2 +5.0
03 18.09 штиль 0 50 км 9/9 600 м
[Cb cap]
+9.4 +2.8 63 +9 +10 1027.6 814.0
06 18.09 Ю 3 50 км 9/9 600 м
[Cb cap]
+11.4 +2.5 54 +10 +11 1025.5 813.7

 

Местоположение метеостанции Цэцэн-Уул (Монголия): широта 48.77 долгота 96.00 высота над уровнем моря 1928 м.

В архиве по умолчанию представлена погода в Цэцэн-Ууле за последнюю неделю. Архивные данные за месяц целиком и за предыдущие месяцы, начиная с января 2011 года, Вы можете получить, выбрав интересующий диапазон дат из раскрывающегося списка и нажав кнопку "Ввод!".


*Определитесь, кто Вы:
робот инопланетянин человек

Внимание! Время в таблицах - всемирное. Для получения местного времени необходимо прибавить поправку, которая равна 8 ч.

Смотрите также архив погоды в соседних городах и на ближайших метеорологических станциях:

Погода в Тэсе (Монголия) (99 км)
Погода в Ургамале (Монголия) (128 км)
Погода в Улиастае (Монголия) (130 км)
Погода в Баруунтурууне (Монголия) (152 км)
Погода в Тосонцэнгэле (Монголия) (161 км)
Погода в Эрзине (Тува, Россия) (179 км)
Погода в Завхане (Монголия) (213 км)
Погода в Кунгур-Туке (Алтай, Россия) (231 км)
Погода в Алтае (Монголия) (264 км)
Погода в Баянбулаге (Монголия) (266 км)

Пояснения к столбцам:

Ветер - указаны скорость ветра в м/с - средняя за 10 мин, порывы в срок и между сроками (в фигурных скобках) и направление, откуда дует ветер: С - северный, СВ - северо-восточный, В - восточный, ЮВ - юго-восточный, Ю - южный, ЮЗ - юго-западный, З - западный, СЗ - северо-западный.
Видимость - горизонтальная дальность видимости в метрах или километрах. При видимости от 1 до 10 км при отсутствии осадков обычно наблюдается дымка, при ухудшении видимости до 1 км и менее - туман. В сухую погоду видимость может ухудшаться дымом, пылью или мглою.
Явления - указаны атмосферные явления, наблюдавшиеся в срок или в последний час перед сроком; фигурными скобками обозначены явления, наблюдавшиеся между сроками (за 1-3 часа до срока); квадратными скобками обозначены град или гололедные отложения с указанием их диаметра в мм.
Облачность - указаны через наклонную черту общая и нижняя облачность в баллах и высота нижней границы облаков в метрах; квадратными скобками обозначены формы облаков: Ci - перистые, Cs - перисто-слоистые, Cc - перисто-кучевые, Ac - высококучевые, As - высокослоистые, Sc - слоисто-кучевые, Ns - слоисто-дождевые, Cu - кучевые, Cb - кучево-дождевые. Подробнее классификацию облаков см. в Атласе облаков (PDF).
T - Температура воздуха - температура, измеренная на высоте 2 м над землей.
Td - Температура точки росы - температура, при понижении до которой содержащийся в воздухе водяной пар достигнет насыщения.
f - Относительная влажность воздуха - влажноcть воздуха, измеренная на высоте 2 м над землей.
Te - Эффективная температура - температура, которую ощущает одетый по сезону человек в тени. Характеристика душности погоды. При расчете учитывается влияние влажности воздуха и скорости ветра на теплоощущения человека.
Tes - Эффективная температура на солнце - температура, которую ощущает человек, с поправкой на солнечный нагрев. Характеристика знойности погоды. Зависит от высоты солнца над горизонтом, облачности и скорости ветра. Ночью, в пасмурную погоду, а также при ветре 12 м/с и более поправка равна нулю.
P - Атмосферное давление - приведенное к уровню моря атмосферное давление.
Po - Атмосферное давление - измеренное на уровне метеостанции атмосферное давление.
Tmin - Минимальная температура - минимум температуры воздуха на высоте 2 м над землей.
Tmax - Максимальная температура - максимум температуры воздуха на высоте 2 м над землей.
R - Количество осадков - Количество выпавших осадков за период времени, мм. При наведении курсора мыши на число - период времени, за который выпало указанное количество осадков.
R24 - Количество осадков - Количество выпавших осадков за 24 часа, мм.
S - Снежный покров - Высота снежного покрова, см. При наведении курсора мыши на число - состояние снежного покрова и степень покрытия местности в баллах.